Location: Newark
(49.8969°N, 3.3422°E)
Time: 02:27:32
(UTC+00:00)

A-11 Canister half - Pass Details

Date: 03 February 2020
Orbit: 1517 x 1683 km, 47.2° (Epoch: 26 February)

Event Time Altitude Azimuth Distance (km) Brightness Sun altitude
Rises 18:54:44 0° 187° (S) 4,821 11.7 -21.2°
Reaches altitude 10° 18:59:00 10° 171° (S) 3,809 11.0 -21.9°
Enters shadow 19:04:26 19° 137° (SE) 3,089 10.2 -22.8°
Maximum altitude 19:05:16 20° 130° (SE) 3,070 - -22.9°
Drops below altitude 10° 19:11:25 10° 89° (E) 3,736 - -23.9°
Sets 19:15:30 0° 73° (ENE) 4,701 - -24.6°
